| time (UTC) | temp F | wind direction | speed MPH | gust MPH | rain 1hr in | rain 24hr in | rain mn in | humidity % | barometer mb |
| 20260502214027 | 54 | 355 | 0.0 | 3.0 | 0.00 | 0.00 | 0.00 | 42 | 1017.0 |
| 20260502213530 | 54 | 312 | 0.0 | 4.0 | 0.00 | 0.00 | 0.00 | 42 | 1017.1 |
| 20260502213027 | 54 | 31 | 0.0 | 4.0 | 0.00 | 0.00 | 0.00 | 38 | 1017.0 |
| 20260502212527 | 54 | 360 | 1.0 | 4.0 | 0.00 | 0.00 | 0.00 | 42 | 1017.0 |
| 20260502212025 | 54 | 9 | 1.0 | 4.0 | 0.00 | 0.00 | 0.00 | 40 | 1016.9 |
| 20260502211541 | 54 | 9 | 0.0 | 5.0 | 0.00 | 0.00 | 0.00 | 42 | 1017.0 |
| 20260502211024 | 54 | 12 | 2.0 | 5.0 | 0.00 | 0.00 | 0.00 | 40 | 1017.0 |
| 20260502210524 | 54 | 286 | 1.0 | 5.0 | 0.00 | 0.00 | 0.00 | 41 | 1017.0 |
| 20260502210024 | 54 | 9 | 0.0 | 2.0 | 0.00 | 0.00 | 0.00 | 41 | 1016.9 |
| 20260502205523 | 54 | 350 | 0.0 | 4.0 | 0.00 | 0.00 | 0.00 | 42 | 1016.9 |
| 20260502205023 | 54 | 311 | 1.0 | 4.0 | 0.00 | 0.00 | 0.00 | 39 | 1017.0 |
| 20260502204523 | 53 | 327 | 0.0 | 6.0 | 0.00 | 0.00 | 0.00 | 41 | 1017.0 |
| 20260502204023 | 54 | 309 | 2.0 | 6.0 | 0.00 | 0.00 | 0.00 | 38 | 1016.9 |
| 20260502203522 | 54 | 327 | 1.0 | 3.0 | 0.00 | 0.00 | 0.00 | 41 | 1016.9 |
| 20260502203023 | 54 | 46 | 0.0 | 4.0 | 0.00 | 0.00 | 0.00 | 39 | 1016.9 |
| 20260502202522 | 54 | 360 | 0.0 | 6.0 | 0.00 | 0.00 | 0.00 | 43 | 1017.0 |
| 20260502202022 | 54 | 73 | 2.0 | 6.0 | 0.00 | 0.00 | 0.00 | 43 | 1017.1 |
| 20260502201522 | 53 | 9 | 1.0 | 9.0 | 0.00 | 0.00 | 0.00 | 40 | 1017.1 |
| 20260502201022 | 54 | 360 | 2.0 | 9.0 | 0.00 | 0.00 | 0.00 | 40 | 1017.1 |
| 20260502200525 | 53 | 5 | 0.0 | 5.0 | 0.00 | 0.00 | 0.00 | 38 | 1017.0 |
| 20260502200022 | 53 | 303 | 0.0 | 9.0 | 0.00 | 0.00 | 0.00 | 40 | 1017.2 |
| 20260502195522 | 54 | 360 | 1.0 | 9.0 | 0.00 | 0.00 | 0.00 | 39 | 1017.2 |
| 20260502195021 | 54 | 5 | 2.0 | 5.0 | 0.00 | 0.00 | 0.00 | 39 | 1017.1 |
| 20260502194521 | 54 | 346 | 1.0 | 6.0 | 0.00 | 0.00 | 0.00 | 41 | 1017.1 |
| 20260502194021 | 54 | 310 | 2.0 | 6.0 | 0.00 | 0.00 | 0.00 | 38 | 1017.3 |
| 20260502193521 | 54 | 14 | 1.0 | 5.0 | 0.00 | 0.00 | 0.00 | 37 | 1017.3 |
| 20260502193021 | 54 | 343 | 2.0 | 5.0 | 0.00 | 0.00 | 0.00 | 38 | 1017.3 |
| 20260502192522 | 54 | 345 | 0.0 | 4.0 | 0.00 | 0.00 | 0.00 | 39 | 1017.2 |
| 20260502192020 | 54 | 76 | 0.0 | 5.0 | 0.00 | 0.00 | 0.00 | 38 | 1017.3 |
| 20260502191524 | 54 | 281 | 1.0 | 8.0 | 0.00 | 0.00 | 0.00 | 37 | 1017.3 |
| 20260502191024 | 55 | 24 | 1.0 | 8.0 | 0.00 | 0.00 | 0.00 | 38 | 1017.4 |
| 20260502190520 | 54 | 323 | 1.0 | 8.0 | 0.00 | 0.00 | 0.00 | 40 | 1017.4 |
| 20260502190028 | 54 | 348 | 2.0 | 5.0 | 0.00 | 0.00 | 0.00 | 41 | 1017.5 |
| 20260502185519 | 54 | 296 | 0.0 | 4.0 | 0.00 | 0.00 | 0.00 | 40 | 1017.5 |
| 20260502185019 | 53 | 5 | 1.0 | 4.0 | 0.00 | 0.00 | 0.00 | 41 | 1017.6 |
| 20260502184517 | 53 | 340 | 1.0 | 4.0 | 0.00 | 0.00 | 0.00 | 41 | 1017.5 |
| 20260502184021 | 53 | 329 | 0.0 | 5.0 | 0.00 | 0.00 | 0.00 | 39 | 1017.5 |
| 20260502183517 | 54 | 360 | 1.0 | 5.0 | 0.00 | 0.00 | 0.00 | 43 | 1017.6 |
| 20260502183016 | 53 | 9 | 0.0 | 2.0 | 0.00 | 0.00 | 0.00 | 39 | 1017.6 |
| 20260502182517 | 53 | 9 | 0.0 | 2.0 | 0.00 | 0.00 | 0.00 | 43 | 1017.6 |
| 20260502182014 | 52 | 5 | 0.0 | 2.0 | 0.00 | 0.00 | 0.00 | 45 | 1017.7 |
| 20260502181514 | 52 | 321 | 0.0 | 3.0 | 0.00 | 0.00 | 0.00 | 47 | 1017.7 |
| 20260502181017 | 52 | 291 | 0.0 | 3.0 | 0.00 | 0.00 | 0.00 | 46 | 1017.8 |
| 20260502180514 | 53 | 345 | 0.0 | 2.0 | 0.00 | 0.00 | 0.00 | 47 | 1017.7 |
| 20260502170509 | 51 | 9 | 0.0 | 2.0 | 0.00 | 0.00 | 0.00 | 53 | 1018.2 |
| 20260502164010 | 50 | 86 | 1.0 | 2.0 | 0.00 | 0.00 | 0.00 | 53 | 1018.4 |
| 20260502163506 | 51 | 360 | 0.0 | 2.0 | 0.00 | 0.00 | 0.00 | 54 | 1018.4 |
| 20260502163005 | 50 | 63 | 0.0 | 3.0 | 0.00 | 0.00 | 0.00 | 57 | 1018.4 |
| 20260502162504 | 50 | 42 | 0.0 | 3.0 | 0.00 | 0.00 | 0.00 | 60 | 1018.5 |
| 20260502162003 | 50 | 15 | 0.0 | 5.0 | 0.00 | 0.00 | 0.00 | 58 | 1018.6 |
| 20260502161504 | 49 | 84 | 1.0 | 5.0 | 0.00 | 0.00 | 0.00 | 58 | 1018.7 |
| 20260502161003 | 49 | 327 | 0.0 | 3.0 | 0.00 | 0.00 | 0.00 | 55 | 1018.7 |
| 20260502160502 | 50 | 76 | 0.0 | 2.0 | 0.00 | 0.00 | 0.00 | 58 | 1018.7 |
| 20260502152059 | 46 | 9 | 0.0 | 3.0 | 0.00 | 0.00 | 0.00 | 58 | 1018.9 |
| 20260502151608 | 46 | 10 | 0.0 | 3.0 | 0.00 | 0.00 | 0.00 | 63 | 1018.8 |
| 20260502151057 | 46 | 12 | 0.0 | 3.0 | 0.00 | 0.00 | 0.00 | 65 | 1018.8 |
| 20260502150552 | 46 | 88 | 0.0 | 2.0 | 0.00 | 0.00 | 0.00 | 65 | 1018.9 |
| 20260502130534 | 42 | 350 | 0.0 | 2.0 | 0.00 | 0.00 | 0.00 | 80 | 1018.7 |
| 20260502123531 | 41 | 344 | 0.0 | 2.0 | 0.00 | 0.01 | 0.00 | 81 | 1018.6 |
| 20260502123031 | 41 | 314 | 0.0 | 2.0 | 0.00 | 0.01 | 0.00 | 81 | 1018.5 |
| 20260502122530 | 41 | 344 | 0.0 | 2.0 | 0.00 | 0.01 | 0.00 | 81 | 1018.4 |
| 20260502122028 | 41 | 344 | 0.0 | 2.0 | 0.00 | 0.01 | 0.00 | 82 | 1018.3 |
| 20260502121529 | 41 | 336 | 0.0 | 1.0 | 0.00 | 0.01 | 0.00 | 82 | 1018.3 |
| 20260502121027 | 41 | 334 | 0.0 | 1.0 | 0.00 | 0.01 | 0.00 | 83 | 1018.3 |
| 20260502120527 | 41 | 334 | 0.0 | 2.0 | 0.00 | 0.01 | 0.00 | 83 | 1018.2 |
| 20260502115527 | 40 | 341 | 0.0 | 2.0 | 0.00 | 0.01 | 0.00 | 83 | 1018.1 |
| 20260502115025 | 40 | 336 | 0.0 | 2.0 | 0.00 | 0.01 | 0.00 | 84 | 1018.0 |
| 20260502114523 | 40 | 333 | 0.0 | 0.0 | 0.00 | 0.01 | 0.00 | 84 | 1017.9 |
| 20260502114023 | 40 | 311 | 0.0 | 2.0 | 0.00 | 0.01 | 0.00 | 86 | 1017.9 |
| 20260502113526 | 40 | 311 | 0.0 | 2.0 | 0.00 | 0.01 | 0.00 | 86 | 1017.8 |
| 20260502113021 | 40 | 320 | 0.0 | 0.0 | 0.00 | 0.01 | 0.00 | 86 | 1017.8 |
| 20260502112520 | 40 | 325 | 0.0 | 0.0 | 0.00 | 0.01 | 0.00 | 86 | 1017.8 |
| 20260502112019 | 39 | 325 | 0.0 | 0.0 | 0.00 | 0.01 | 0.00 | 84 | 1017.7 |
| 20260502111522 | 40 | 325 | 0.0 | 2.0 | 0.00 | 0.01 | 0.00 | 84 | 1017.6 |
| 20260502111017 | 40 | 332 | 0.0 | 1.0 | 0.00 | 0.01 | 0.00 | 87 | 1017.7 |
| 20260502110517 | 40 | 5 | 0.0 | 2.0 | 0.00 | 0.01 | 0.00 | 84 | 1017.4 |
| 20260502110017 | 40 | 5 | 0.0 | 2.0 | 0.00 | 0.01 | 0.00 | 86 | 1017.4 |
| 20260502105519 | 40 | 5 | 0.0 | 2.0 | 0.00 | 0.01 | 0.00 | 86 | 1017.3 |
| 20260502105017 | 40 | 336 | 0.0 | 2.0 | 0.00 | 0.01 | 0.00 | 84 | 1017.3 |
| 20260502104518 | 40 | 336 | 0.0 | 1.0 | 0.00 | 0.01 | 0.00 | 85 | 1017.4 |
| 20260502104015 | 40 | 339 | 0.0 | 0.0 | 0.00 | 0.01 | 0.00 | 85 | 1017.3 |
| 20260502103515 | 40 | 342 | 0.0 | 0.0 | 0.00 | 0.01 | 0.00 | 83 | 1017.2 |
| 20260502103015 | 40 | 342 | 0.0 | 0.0 | 0.00 | 0.01 | 0.00 | 84 | 1017.1 |
| 20260502102515 | 41 | 348 | 0.0 | 0.0 | 0.00 | 0.01 | 0.00 | 84 | 1017.1 |
| 20260502102014 | 41 | 355 | 0.0 | 0.0 | 0.00 | 0.01 | 0.00 | 83 | 1017.0 |
| 20260502101514 | 41 | 355 | 0.0 | 0.0 | 0.00 | 0.01 | 0.00 | 86 | 1017.0 |
| 20260502101014 | 41 | 355 | 0.0 | 0.0 | 0.00 | 0.01 | 0.00 | 86 | 1017.0 |
| 20260502100514 | 41 | 344 | 0.0 | 0.0 | 0.00 | 0.01 | 0.00 | 84 | 1017.1 |
| 20260502091509 | 41 | 330 | 0.0 | 0.0 | 0.00 | 0.01 | 0.00 | 88 | 1017.3 |
| 20260502091009 | 41 | 330 | 0.0 | 0.0 | 0.00 | 0.01 | 0.00 | 88 | 1017.4 |
| 20260502090509 | 41 | 337 | 0.0 | 0.0 | 0.00 | 0.01 | 0.00 | 87 | 1017.4 |
| 20260502071503 | 43 | 342 | 0.0 | 0.0 | 0.00 | 0.01 | 0.00 | 87 | 1017.0 |
| 20260502071005 | 43 | 342 | 0.0 | 2.0 | 0.00 | 0.01 | 0.00 | 87 | 1016.8 |
| 20260502070502 | 43 | 340 | 0.0 | 2.0 | 0.00 | 0.01 | 0.00 | 87 | 1016.9 |
| 20260502070002 | 42 | 340 | 0.0 | 2.0 | 0.00 | 0.01 | 0.00 | 86 | 1017.0 |
| 20260502065501 | 43 | 339 | 0.0 | 2.0 | 0.00 | 0.01 | 0.00 | 87 | 1017.1 |
| 20260502065002 | 42 | 337 | 0.0 | 2.0 | 0.00 | 0.01 | 0.00 | 86 | 1017.1 |
| 20260502064500 | 42 | 337 | 0.0 | 0.0 | 0.00 | 0.01 | 0.00 | 86 | 1017.1 |
| 20260502064000 | 42 | 335 | 0.0 | 0.0 | 0.00 | 0.01 | 0.00 | 86 | 1017.1 |
| 20260502063600 | 42 | 326 | 0.0 | 0.0 | 0.00 | 0.01 | 0.00 | 87 | 1017.1 |
| 20260502063106 | 42 | 325 | 0.0 | 0.0 | 0.00 | 0.01 | 0.00 | 86 | 1017.2 |
| 20260502062602 | 42 | 322 | 0.0 | 0.0 | 0.00 | 0.01 | 0.00 | 87 | 1017.2 |
| 20260502062105 | 42 | 322 | 0.0 | 0.0 | 0.00 | 0.01 | 0.00 | 86 | 1017.2 |
| 20260502061600 | 42 | 314 | 0.0 | 0.0 | 0.00 | 0.01 | 0.00 | 87 | 1017.2 |
| 20260502061059 | 42 | 314 | 0.0 | 0.0 | 0.00 | 0.01 | 0.00 | 88 | 1017.3 |
| 20260502060558 | 42 | 314 | 0.0 | 0.0 | 0.00 | 0.01 | 0.00 | 88 | 1017.3 |
| 20260502060111 | 42 | 314 | 0.0 | 0.0 | 0.00 | 0.01 | 0.00 | 88 | 1017.4 |
| 20260502055558 | 42 | 314 | 0.0 | 0.0 | 0.00 | 0.01 | 0.00 | 89 | 1017.5 |
| 20260502055058 | 42 | 314 | 0.0 | 0.0 | 0.00 | 0.01 | 0.00 | 88 | 1017.4 |
| 20260502054602 | 42 | 314 | 0.0 | 0.0 | 0.00 | 0.01 | 0.00 | 87 | 1017.4 |
| 20260502054057 | 42 | 314 | 0.0 | 0.0 | 0.00 | 0.01 | 0.00 | 87 | 1017.3 |
| 20260502053557 | 42 | 314 | 0.0 | 0.0 | 0.00 | 0.01 | 0.00 | 87 | 1017.3 |
| 20260502053106 | 42 | 314 | 0.0 | 0.0 | 0.00 | 0.01 | 0.00 | 88 | 1017.3 |
| 20260502052557 | 42 | 314 | 0.0 | 0.0 | 0.00 | 0.01 | 0.00 | 86 | 1017.3 |
| 20260502052059 | 42 | 314 | 0.0 | 0.0 | 0.00 | 0.01 | 0.00 | 88 | 1017.2 |
| 20260502051602 | 42 | 314 | 0.0 | 0.0 | 0.00 | 0.01 | 0.00 | 89 | 1017.1 |
| 20260502051056 | 42 | 314 | 0.0 | 0.0 | 0.00 | 0.01 | 0.00 | 88 | 1017.0 |
| 20260502050558 | 42 | 314 | 0.0 | 0.0 | 0.00 | 0.01 | 0.00 | 90 | 1017.1 |
| 20260502050100 | 42 | 314 | 0.0 | 0.0 | 0.00 | 0.01 | 0.00 | 87 | 1017.1 |
| 20260502045555 | 42 | 314 | 0.0 | 0.0 | 0.00 | 0.01 | 0.00 | 87 | 1017.2 |
| 20260502045053 | 42 | 314 | 0.0 | 0.0 | 0.00 | 0.01 | 0.00 | 87 | 1017.2 |
| 20260502044555 | 42 | 314 | 0.0 | 0.0 | 0.00 | 0.01 | 0.00 | 86 | 1017.4 |
| 20260502044052 | 42 | 314 | 0.0 | 0.0 | 0.00 | 0.01 | 0.00 | 86 | 1017.4 |
| 20260502043551 | 42 | 314 | 0.0 | 0.0 | 0.00 | 0.01 | 0.00 | 87 | 1017.4 |
| 20260502043053 | 42 | 314 | 0.0 | 0.0 | 0.00 | 0.01 | 0.00 | 87 | 1017.5 |
| 20260502042550 | 42 | 314 | 0.0 | 0.0 | 0.00 | 0.01 | 0.00 | 85 | 1017.5 |
| 20260502042049 | 42 | 314 | 0.0 | 0.0 | 0.00 | 0.01 | 0.00 | 85 | 1017.4 |
| 20260502041549 | 42 | 314 | 0.0 | 0.0 | 0.00 | 0.01 | 0.00 | 85 | 1017.6 |
| 20260502041050 | 42 | 314 | 0.0 | 0.0 | 0.00 | 0.01 | 0.00 | 85 | 1017.5 |
| 20260502040547 | 42 | 314 | 0.0 | 0.0 | 0.00 | 0.01 | 0.00 | 86 | 1017.6 |
| 20260502040049 | 42 | 314 | 0.0 | 0.0 | 0.00 | 0.01 | 0.00 | 86 | 1017.4 |
| 20260502035545 | 42 | 314 | 0.0 | 0.0 | 0.00 | 0.01 | 0.01 | 86 | 1017.4 |
| 20260502035044 | 43 | 314 | 0.0 | 0.0 | 0.00 | 0.01 | 0.01 | 86 | 1017.4 |
| 20260502034544 | 43 | 314 | 0.0 | 0.0 | 0.00 | 0.01 | 0.01 | 85 | 1017.4 |
| 20260502034044 | 43 | 314 | 0.0 | 0.0 | 0.00 | 0.01 | 0.01 | 85 | 1017.4 |
| 20260502033543 | 43 | 314 | 0.0 | 0.0 | 0.00 | 0.01 | 0.01 | 85 | 1017.4 |
| 20260502033044 | 43 | 314 | 0.0 | 0.0 | 0.00 | 0.01 | 0.01 | 83 | 1017.3 |
| 20260502032541 | 43 | 314 | 0.0 | 0.0 | 0.00 | 0.01 | 0.01 | 82 | 1017.4 |
| 20260502032040 | 44 | 314 | 0.0 | 0.0 | 0.00 | 0.01 | 0.01 | 82 | 1017.4 |
| 20260502031543 | 44 | 314 | 0.0 | 0.0 | 0.00 | 0.01 | 0.01 | 83 | 1017.5 |
| 20260502031040 | 44 | 314 | 0.0 | 0.0 | 0.00 | 0.01 | 0.01 | 82 | 1017.5 |
| 20260502030540 | 44 | 314 | 0.0 | 0.0 | 0.00 | 0.01 | 0.01 | 80 | 1017.4 |
| 20260502030038 | 44 | 314 | 0.0 | 0.0 | 0.00 | 0.01 | 0.01 | 80 | 1017.4 |
| 20260502025536 | 45 | 314 | 0.0 | 0.0 | 0.00 | 0.01 | 0.01 | 78 | 1017.4 |
| 20260502025036 | 45 | 314 | 0.0 | 0.0 | 0.00 | 0.01 | 0.01 | 77 | 1017.5 |
| 20260502024536 | 46 | 314 | 0.0 | 0.0 | 0.00 | 0.01 | 0.01 | 76 | 1017.5 |
| 20260502024034 | 46 | 314 | 0.0 | 0.0 | 0.00 | 0.01 | 0.01 | 76 | 1017.4 |
| 20260502023534 | 46 | 314 | 0.0 | 0.0 | 0.00 | 0.01 | 0.01 | 76 | 1017.4 |
| 20260502023034 | 46 | 314 | 0.0 | 0.0 | 0.00 | 0.01 | 0.01 | 74 | 1017.4 |
| 20260502022533 | 47 | 314 | 0.0 | 1.0 | 0.00 | 0.01 | 0.01 | 73 | 1017.4 |
| 20260502022032 | 47 | 314 | 0.0 | 1.0 | 0.00 | 0.01 | 0.01 | 73 | 1017.3 |
| 20260502021534 | 47 | 313 | 0.0 | 0.0 | 0.00 | 0.01 | 0.01 | 75 | 1017.3 |
| 20260502021032 | 47 | 313 | 0.0 | 0.0 | 0.00 | 0.01 | 0.01 | 75 | 1017.4 |
| 20260502020531 | 47 | 313 | 0.0 | 0.0 | 0.00 | 0.01 | 0.01 | 76 | 1017.3 |
| 20260502020031 | 46 | 313 | 0.0 | 0.0 | 0.00 | 0.01 | 0.01 | 77 | 1017.1 |
| 20260502015530 | 46 | 313 | 0.0 | 0.0 | 0.00 | 0.01 | 0.01 | 74 | 1017.1 |
| 20260502015031 | 47 | 313 | 0.0 | 0.0 | 0.00 | 0.01 | 0.01 | 72 | 1016.9 |
| 20260502014532 | 47 | 342 | 0.0 | 0.0 | 0.00 | 0.01 | 0.01 | 72 | 1016.9 |
| 20260502014029 | 48 | 342 | 0.0 | 0.0 | 0.00 | 0.01 | 0.01 | 70 | 1016.9 |
| 20260502013528 | 48 | 342 | 0.0 | 0.0 | 0.00 | 0.01 | 0.01 | 68 | 1016.9 |
| 20260502013028 | 49 | 342 | 0.0 | 0.0 | 0.00 | 0.01 | 0.01 | 69 | 1016.9 |
| 20260502012528 | 49 | 342 | 0.0 | 0.0 | 0.00 | 0.01 | 0.01 | 68 | 1016.9 |
| 20260502012027 | 49 | 342 | 0.0 | 0.0 | 0.00 | 0.01 | 0.01 | 67 | 1016.8 |
| 20260502011543 | 50 | 347 | 0.0 | 1.0 | 0.00 | 0.01 | 0.01 | 65 | 1016.6 |
| 20260502011025 | 50 | 348 | 0.0 | 1.0 | 0.00 | 0.01 | 0.01 | 66 | 1016.5 |
| 20260502010524 | 50 | 348 | 0.0 | 0.0 | 0.00 | 0.01 | 0.01 | 62 | 1016.1 |
| 20260502010025 | 50 | 348 | 0.0 | 0.0 | 0.00 | 0.01 | 0.01 | 63 | 1016.2 |
| 20260502005524 | 50 | 325 | 0.0 | 2.0 | 0.00 | 0.01 | 0.01 | 62 | 1016.2 |
| 20260502005023 | 51 | 325 | 0.0 | 2.0 | 0.00 | 0.01 | 0.01 | 61 | 1016.1 |
| 20260502004528 | 51 | 27 | 0.0 | 2.0 | 0.00 | 0.01 | 0.01 | 59 | 1016.0 |
| 20260502004021 | 51 | 355 | 0.0 | 1.0 | 0.00 | 0.01 | 0.01 | 60 | 1015.8 |
| 20260502003524 | 51 | 344 | 0.0 | 1.0 | 0.00 | 0.01 | 0.01 | 59 | 1015.7 |
| 20260502003024 | 52 | 340 | 0.0 | 2.0 | 0.00 | 0.01 | 0.01 | 58 | 1015.7 |
| 20260502002520 | 52 | 346 | 0.0 | 2.0 | 0.00 | 0.01 | 0.01 | 59 | 1015.5 |
| 20260502002023 | 52 | 350 | 0.0 | 3.0 | 0.00 | 0.01 | 0.01 | 59 | 1015.4 |
| 20260502001520 | 52 | 355 | 0.0 | 6.0 | 0.00 | 0.01 | 0.01 | 56 | 1015.2 |
| 20260502001023 | 53 | 17 | 0.0 | 6.0 | 0.00 | 0.01 | 0.01 | 54 | 1015.0 |
| 20260502000519 | 53 | 355 | 0.0 | 5.0 | 0.00 | 0.01 | 0.01 | 54 | 1014.9 |
| 20260502000019 | 53 | 14 | 1.0 | 5.0 | 0.00 | 0.01 | 0.01 | 54 | 1014.9 |
| 20260501235523 | 54 | 360 | 0.0 | 3.0 | 0.00 | 0.01 | 0.01 | 56 | 1014.9 |
| 20260501235018 | 53 | 338 | 0.0 | 3.0 | 0.00 | 0.01 | 0.01 | 53 | 1014.9 |
| 20260501234518 | 53 | 333 | 0.0 | 4.0 | 0.00 | 0.01 | 0.01 | 53 | 1015.0 |
| 20260501234018 | 53 | 17 | 0.0 | 4.0 | 0.00 | 0.01 | 0.01 | 53 | 1015.1 |
| 20260501233518 | 54 | 338 | 0.0 | 2.0 | 0.00 | 0.01 | 0.01 | 55 | 1015.1 |
| 20260501233018 | 54 | 351 | 0.0 | 4.0 | 0.00 | 0.01 | 0.01 | 56 | 1015.1 |
| 20260501232518 | 54 | 5 | 0.0 | 5.0 | 0.00 | 0.01 | 0.01 | 54 | 1015.2 |
| 20260501232020 | 54 | 334 | 1.0 | 5.0 | 0.00 | 0.01 | 0.01 | 55 | 1015.2 |
| 20260501231532 | 54 | 9 | 1.0 | 4.0 | 0.00 | 0.01 | 0.01 | 54 | 1015.2 |
| 20260501231017 | 55 | 315 | 1.0 | 4.0 | 0.00 | 0.01 | 0.01 | 50 | 1015.1 |
| 20260501230520 | 56 | 295 | 0.0 | 2.0 | 0.00 | 0.01 | 0.01 | 51 | 1015.1 |
| 20260501230017 | 56 | 333 | 0.0 | 4.0 | 0.00 | 0.01 | 0.01 | 50 | 1015.1 |
| 20260501225517 | 55 | 360 | 1.0 | 4.0 | 0.00 | 0.01 | 0.01 | 51 | 1015.1 |
| 20260501225021 | 55 | 333 | 0.0 | 3.0 | 0.00 | 0.01 | 0.01 | 51 | 1015.1 |
| 20260501224517 | 55 | 5 | 0.0 | 2.0 | 0.00 | 0.01 | 0.01 | 54 | 1015.0 |
| 20260501224016 | 55 | 333 | 0.0 | 2.0 | 0.00 | 0.01 | 0.01 | 52 | 1015.1 |
| 20260501223516 | 55 | 9 | 0.0 | 3.0 | 0.00 | 0.01 | 0.01 | 54 | 1015.1 |
| 20260501223016 | 54 | 347 | 0.0 | 3.0 | 0.00 | 0.01 | 0.01 | 50 | 1015.1 |
| 20260501222517 | 55 | 9 | 0.0 | 3.0 | 0.00 | 0.01 | 0.01 | 52 | 1015.1 |
| 20260501222016 | 55 | 5 | 1.0 | 3.0 | 0.00 | 0.01 | 0.01 | 52 | 1015.1 |
| 20260501221515 | 55 | 19 | 0.0 | 4.0 | 0.00 | 0.01 | 0.01 | 55 | 1015.1 |
| 20260501221017 | 55 | 355 | 0.0 | 4.0 | 0.00 | 0.01 | 0.01 | 53 | 1015.0 |
| 20260501220515 | 55 | 360 | 1.0 | 4.0 | 0.00 | 0.01 | 0.01 | 51 | 1015.0 |
| 20260501220018 | 55 | 340 | 1.0 | 4.0 | 0.00 | 0.01 | 0.01 | 48 | 1015.1 |
| 20260501215515 | 55 | 320 | 1.0 | 7.0 | 0.00 | 0.01 | 0.01 | 51 | 1015.0 |
| 20260501215015 | 55 | 5 | 0.0 | 7.0 | 0.00 | 0.01 | 0.01 | 51 | 1015.1 |
| 20260501214516 | 55 | 15 | 0.0 | 3.0 | 0.00 | 0.01 | 0.01 | 51 | 1015.1 |